XIWANG-1 (HOPE-1)

Last updated on Sun Aug 09 2026 00:03:15 GMT+0000 (Coordinated Universal Time)

1 36122U 09072B 26220.60725799 .00000269 00000+0 82077-3 0 9992 2 36122 100.4054 173.6090 0008110 111.5025 248.6954 13.16441668799903
UTC large
Height (km)
Speed (km/s)
/
Latitude / Longitude
Inclination (degrees)
Orbital Period (minutes)
Azimuth
Elevation
Range (km)
Doppler Factor

Next 0 passes for location: London (51.5072 / 0.1276)

No passes found over London.
XIWANG-1 (HOPE-1)